Year,Month,Day,Hour,Minute,Value (Times are PST for temperature in C)
2011,05,19,00,00,8.00
2011,05,19,00,01,7.90
2011,05,19,00,02,7.90
2011,05,19,00,03,7.90
2011,05,19,00,04,7.90
2011,05,19,00,05,7.90
2011,05,19,00,06,7.90
2011,05,19,00,07,7.80
2011,05,19,00,08,7.80
2011,05,19,00,09,7.80
2011,05,19,00,10,7.80
2011,05,19,00,11,7.80
2011,05,19,00,12,7.80
2011,05,19,00,13,7.80
2011,05,19,00,14,7.80
2011,05,19,00,15,7.80
2011,05,19,00,16,7.80
2011,05,19,00,17,7.80
2011,05,19,00,18,7.70
2011,05,19,00,19,7.70
2011,05,19,00,20,7.70
2011,05,19,00,21,7.70
2011,05,19,00,22,7.60
2011,05,19,00,23,7.60
2011,05,19,00,24,7.60
2011,05,19,00,25,7.50
2011,05,19,00,26,7.50
2011,05,19,00,27,7.50
2011,05,19,00,28,7.50
2011,05,19,00,29,7.40
2011,05,19,00,30,7.40
2011,05,19,00,31,7.40
2011,05,19,00,32,7.40
2011,05,19,00,33,7.30
2011,05,19,00,34,7.30
2011,05,19,00,35,7.30
2011,05,19,00,36,7.30
2011,05,19,00,37,7.30
2011,05,19,00,38,7.30
2011,05,19,00,39,7.30
2011,05,19,00,40,7.30
2011,05,19,00,41,7.20
2011,05,19,00,42,7.20
2011,05,19,00,43,7.20
2011,05,19,00,44,7.20
2011,05,19,00,45,7.10
2011,05,19,00,46,7.10
2011,05,19,00,47,7.00
2011,05,19,00,48,7.00
2011,05,19,00,49,6.90
2011,05,19,00,50,6.90
2011,05,19,00,51,6.90
2011,05,19,00,52,6.90
2011,05,19,00,53,6.90
2011,05,19,00,54,6.80
2011,05,19,00,55,6.80
2011,05,19,00,56,6.80
2011,05,19,00,57,6.80
2011,05,19,00,58,6.80
2011,05,19,00,59,6.70
2011,05,19,01,00,6.70
2011,05,19,01,01,6.70
2011,05,19,01,02,6.60
2011,05,19,01,03,6.60
2011,05,19,01,04,6.60
2011,05,19,01,05,6.50
2011,05,19,01,06,6.50
2011,05,19,01,07,6.50
2011,05,19,01,08,6.40
2011,05,19,01,09,6.40
2011,05,19,01,10,6.40
2011,05,19,01,11,6.40
2011,05,19,01,12,6.40
2011,05,19,01,13,6.30
2011,05,19,01,14,6.30
2011,05,19,01,15,6.30
2011,05,19,01,16,6.30
2011,05,19,01,17,6.30
2011,05,19,01,18,6.30
2011,05,19,01,19,6.30
2011,05,19,01,20,6.30
2011,05,19,01,21,6.30
2011,05,19,01,22,6.30
2011,05,19,01,23,6.30
2011,05,19,01,24,6.30
2011,05,19,01,25,6.20
2011,05,19,01,26,6.20
2011,05,19,01,27,6.20
2011,05,19,01,28,6.20
2011,05,19,01,29,6.20
2011,05,19,01,30,6.20
2011,05,19,01,31,6.20
2011,05,19,01,32,6.20
2011,05,19,01,33,6.10
2011,05,19,01,34,6.10
2011,05,19,01,35,6.10
2011,05,19,01,36,6.10
2011,05,19,01,37,6.00
2011,05,19,01,38,6.00
2011,05,19,01,39,6.00
2011,05,19,01,40,6.00
2011,05,19,01,41,6.00
2011,05,19,01,42,6.00
2011,05,19,01,43,5.90
2011,05,19,01,44,5.90
2011,05,19,01,45,5.90
2011,05,19,01,46,5.90
2011,05,19,01,47,5.90
2011,05,19,01,48,5.90
2011,05,19,01,49,5.90
2011,05,19,01,50,5.90
2011,05,19,01,51,5.90
2011,05,19,01,52,5.90
2011,05,19,01,53,5.90
2011,05,19,01,54,5.90
2011,05,19,01,55,5.90
2011,05,19,01,56,5.90
2011,05,19,01,57,5.90
2011,05,19,01,58,5.90
2011,05,19,01,59,5.90
2011,05,19,02,00,5.90
2011,05,19,02,01,5.90
2011,05,19,02,02,5.90
2011,05,19,02,03,5.90
2011,05,19,02,04,5.90
2011,05,19,02,05,5.90
2011,05,19,02,06,5.90
2011,05,19,02,07,5.90
2011,05,19,02,08,5.90
2011,05,19,02,09,5.90
2011,05,19,02,10,5.90
2011,05,19,02,11,5.90
2011,05,19,02,12,5.90
2011,05,19,02,13,5.90
2011,05,19,02,14,5.80
2011,05,19,02,15,5.80
2011,05,19,02,16,5.80
2011,05,19,02,17,5.80
2011,05,19,02,18,5.80
2011,05,19,02,19,5.80
2011,05,19,02,20,5.80
2011,05,19,02,21,5.80
2011,05,19,02,22,5.80
2011,05,19,02,23,5.80
2011,05,19,02,24,5.80
2011,05,19,02,25,5.80
2011,05,19,02,26,5.80
2011,05,19,02,27,5.80
2011,05,19,02,28,5.80
2011,05,19,02,29,5.90
2011,05,19,02,30,5.90
2011,05,19,02,31,5.90
2011,05,19,02,32,5.90
2011,05,19,02,33,5.90
2011,05,19,02,34,5.90
2011,05,19,02,35,5.90
2011,05,19,02,36,5.90
2011,05,19,02,37,5.90
2011,05,19,02,38,5.90
2011,05,19,02,39,5.90
2011,05,19,02,40,5.90
2011,05,19,02,41,5.80
2011,05,19,02,42,5.80
2011,05,19,02,43,5.80
2011,05,19,02,44,5.80
2011,05,19,02,45,5.80
2011,05,19,02,46,5.80
2011,05,19,02,47,5.80
2011,05,19,02,48,5.80
2011,05,19,02,49,5.80
2011,05,19,02,50,5.80
2011,05,19,02,51,5.80
2011,05,19,02,52,5.70
2011,05,19,02,53,5.70
2011,05,19,02,54,5.70
2011,05,19,02,55,5.70
2011,05,19,02,56,5.70
2011,05,19,02,57,5.60
2011,05,19,02,58,5.60
2011,05,19,02,59,5.60
2011,05,19,03,00,5.60
2011,05,19,03,01,5.60
2011,05,19,03,02,5.60
2011,05,19,03,03,5.60
2011,05,19,03,04,5.60
2011,05,19,03,05,5.60
2011,05,19,03,06,5.60
2011,05,19,03,07,5.60
2011,05,19,03,08,5.60
2011,05,19,03,09,5.60
2011,05,19,03,10,5.60
2011,05,19,03,11,5.60
2011,05,19,03,12,5.60
2011,05,19,03,13,5.60
2011,05,19,03,14,5.50
2011,05,19,03,15,5.50
2011,05,19,03,16,5.50
2011,05,19,03,17,5.50
2011,05,19,03,18,5.50
2011,05,19,03,19,5.50
2011,05,19,03,20,5.50
2011,05,19,03,21,5.40
2011,05,19,03,22,5.40
2011,05,19,03,23,5.40
2011,05,19,03,24,5.40
2011,05,19,03,25,5.40
2011,05,19,03,26,5.40
2011,05,19,03,27,5.40
2011,05,19,03,28,5.50
2011,05,19,03,29,5.50
2011,05,19,03,30,5.50
2011,05,19,03,31,5.50
2011,05,19,03,32,5.50
2011,05,19,03,33,5.50
2011,05,19,03,34,5.60
2011,05,19,03,35,5.60
2011,05,19,03,36,5.60
2011,05,19,03,37,5.60
2011,05,19,03,38,5.60
2011,05,19,03,39,5.60
2011,05,19,03,40,5.60
2011,05,19,03,41,5.60
2011,05,19,03,42,5.60
2011,05,19,03,43,5.60
2011,05,19,03,44,5.60
2011,05,19,03,45,5.60
2011,05,19,03,46,5.50
2011,05,19,03,47,5.50
2011,05,19,03,48,5.50
2011,05,19,03,49,5.50
2011,05,19,03,50,5.50
2011,05,19,03,51,5.60
2011,05,19,03,52,5.50
2011,05,19,03,53,5.60
2011,05,19,03,54,5.60
2011,05,19,03,55,5.60
2011,05,19,03,56,5.60
2011,05,19,03,57,5.60
2011,05,19,03,58,5.60
2011,05,19,03,59,5.60
2011,05,19,04,00,5.60
2011,05,19,04,01,5.60
2011,05,19,04,02,5.50
2011,05,19,04,03,5.50
2011,05,19,04,04,5.50
2011,05,19,04,05,5.50
2011,05,19,04,06,5.50
2011,05,19,04,07,5.50
2011,05,19,04,08,5.50
2011,05,19,04,09,5.50
2011,05,19,04,10,5.50
2011,05,19,04,11,5.50
2011,05,19,04,12,5.50
2011,05,19,04,13,5.50
2011,05,19,04,14,5.40
2011,05,19,04,15,5.40
2011,05,19,04,16,5.40
2011,05,19,04,17,5.40
2011,05,19,04,18,5.40
2011,05,19,04,19,5.40
2011,05,19,04,20,5.40
2011,05,19,04,21,5.40
2011,05,19,04,22,5.30
2011,05,19,04,23,5.30
2011,05,19,04,24,5.30
2011,05,19,04,25,5.30
2011,05,19,04,26,5.30
2011,05,19,04,27,5.30
2011,05,19,04,28,5.30
2011,05,19,04,29,5.20
2011,05,19,04,30,5.20
2011,05,19,04,31,5.20
2011,05,19,04,32,5.20
2011,05,19,04,33,5.20
2011,05,19,04,34,5.20
2011,05,19,04,35,5.20
2011,05,19,04,36,5.20
2011,05,19,04,37,5.20
2011,05,19,04,38,5.20
2011,05,19,04,39,5.20
2011,05,19,04,40,5.20
2011,05,19,04,41,5.20
2011,05,19,04,42,5.20
2011,05,19,04,43,5.20
2011,05,19,04,44,5.20
2011,05,19,04,45,5.20
2011,05,19,04,46,5.20
2011,05,19,04,47,5.10
2011,05,19,04,48,5.10
2011,05,19,04,49,5.10
2011,05,19,04,50,5.10
2011,05,19,04,51,5.10
2011,05,19,04,52,5.10
2011,05,19,04,53,5.10
2011,05,19,04,54,5.10
2011,05,19,04,55,5.10
2011,05,19,04,56,5.10
2011,05,19,04,57,5.10
2011,05,19,04,58,5.00
2011,05,19,04,59,5.00
2011,05,19,05,00,5.00
2011,05,19,05,01,5.10
2011,05,19,05,02,5.10
2011,05,19,05,03,5.10
2011,05,19,05,04,5.10
2011,05,19,05,05,5.10
2011,05,19,05,06,5.10
2011,05,19,05,07,5.10
2011,05,19,05,08,5.10
2011,05,19,05,09,5.10
2011,05,19,05,10,5.10
2011,05,19,05,11,5.10
2011,05,19,05,12,5.00
2011,05,19,05,13,5.00
2011,05,19,05,14,5.00
2011,05,19,05,15,4.90
2011,05,19,05,16,4.90
2011,05,19,05,17,4.90
2011,05,19,05,18,4.90
2011,05,19,05,19,4.80
2011,05,19,05,20,4.80
2011,05,19,05,21,4.80
2011,05,19,05,22,4.80
2011,05,19,05,23,4.80
2011,05,19,05,24,4.80
2011,05,19,05,25,4.80
2011,05,19,05,26,4.80
2011,05,19,05,27,4.80
2011,05,19,05,28,4.80
2011,05,19,05,29,4.80
2011,05,19,05,30,4.80
2011,05,19,05,31,4.80
2011,05,19,05,32,4.80
2011,05,19,05,33,4.80
2011,05,19,05,34,4.80
2011,05,19,05,35,4.80
2011,05,19,05,36,4.80
2011,05,19,05,37,4.80
2011,05,19,05,38,4.80
2011,05,19,05,39,4.80
2011,05,19,05,40,4.80
2011,05,19,05,41,4.80
2011,05,19,05,42,4.80
2011,05,19,05,43,4.80
2011,05,19,05,44,4.80
2011,05,19,05,45,4.80
2011,05,19,05,46,4.80
2011,05,19,05,47,4.80
2011,05,19,05,48,4.80
2011,05,19,05,49,4.80
2011,05,19,05,50,4.80
2011,05,19,05,51,4.80
2011,05,19,05,52,4.80
2011,05,19,05,53,4.80
2011,05,19,05,54,4.80
2011,05,19,05,55,4.80
2011,05,19,05,56,4.80
2011,05,19,05,57,4.80
2011,05,19,05,58,4.80
2011,05,19,05,59,4.80
2011,05,19,06,00,4.80
2011,05,19,06,01,4.80
2011,05,19,06,02,4.80
2011,05,19,06,03,4.80
2011,05,19,06,04,4.70
2011,05,19,06,05,4.70
2011,05,19,06,06,4.70
2011,05,19,06,07,4.70
2011,05,19,06,08,4.70
2011,05,19,06,09,4.70
2011,05,19,06,10,4.70
2011,05,19,06,11,4.70
2011,05,19,06,12,4.70
2011,05,19,06,13,4.70
2011,05,19,06,14,4.70
2011,05,19,06,15,4.70
2011,05,19,06,16,4.70
2011,05,19,06,17,4.70
2011,05,19,06,18,4.70
2011,05,19,06,19,4.80
2011,05,19,06,20,4.80
2011,05,19,06,21,4.80
2011,05,19,06,22,4.80
2011,05,19,06,23,4.80
2011,05,19,06,24,4.90
2011,05,19,06,25,4.90
2011,05,19,06,26,4.90
2011,05,19,06,27,5.00
2011,05,19,06,28,5.10
2011,05,19,06,29,5.10
2011,05,19,06,30,5.10
2011,05,19,06,31,5.20
2011,05,19,06,32,5.20
2011,05,19,06,33,5.20
2011,05,19,06,34,5.20
2011,05,19,06,35,5.20
2011,05,19,06,36,5.20
2011,05,19,06,37,5.30
2011,05,19,06,38,5.30
2011,05,19,06,39,5.30
2011,05,19,06,40,5.30
2011,05,19,06,41,5.30
2011,05,19,06,42,5.30
2011,05,19,06,43,5.40
2011,05,19,06,44,5.40
2011,05,19,06,45,5.40
2011,05,19,06,46,5.40
2011,05,19,06,47,5.40
2011,05,19,06,48,5.50
2011,05,19,06,49,5.50
2011,05,19,06,50,5.50
2011,05,19,06,51,5.50
2011,05,19,06,52,5.60
2011,05,19,06,53,5.60
2011,05,19,06,54,5.60
2011,05,19,06,55,5.70
2011,05,19,06,56,5.70
2011,05,19,06,57,5.70
2011,05,19,06,58,5.70
2011,05,19,06,59,5.70
2011,05,19,07,00,5.70
2011,05,19,07,01,5.70
2011,05,19,07,02,5.80
2011,05,19,07,03,5.80
2011,05,19,07,04,5.80
2011,05,19,07,05,5.90
2011,05,19,07,06,5.90
2011,05,19,07,07,5.90
2011,05,19,07,08,6.00
2011,05,19,07,09,6.00
2011,05,19,07,10,6.00
2011,05,19,07,11,6.00
2011,05,19,07,12,6.00
2011,05,19,07,13,6.00
2011,05,19,07,14,6.00
2011,05,19,07,15,6.10
2011,05,19,07,16,6.10
2011,05,19,07,17,6.20
2011,05,19,07,18,6.20
2011,05,19,07,19,6.30
2011,05,19,07,20,6.30
2011,05,19,07,21,6.40
2011,05,19,07,22,6.40
2011,05,19,07,23,6.50
2011,05,19,07,24,6.60
2011,05,19,07,25,6.80
2011,05,19,07,26,6.80
2011,05,19,07,27,6.90
2011,05,19,07,28,7.00
2011,05,19,07,29,7.00
2011,05,19,07,30,7.10
2011,05,19,07,31,7.20
2011,05,19,07,32,7.20
2011,05,19,07,33,7.30
2011,05,19,07,34,7.30
2011,05,19,07,35,7.40
2011,05,19,07,36,7.40
2011,05,19,07,37,7.50
2011,05,19,07,38,7.50
2011,05,19,07,39,7.60
2011,05,19,07,40,7.70
2011,05,19,07,41,7.70
2011,05,19,07,42,7.80
2011,05,19,07,43,7.90
2011,05,19,07,44,7.90
2011,05,19,07,45,8.00
2011,05,19,07,46,8.00
2011,05,19,07,47,8.10
2011,05,19,07,48,8.00
2011,05,19,07,49,8.00
2011,05,19,07,50,8.00
2011,05,19,07,51,8.00
2011,05,19,07,52,8.00
2011,05,19,07,53,8.00
2011,05,19,07,54,8.10
2011,05,19,07,55,8.10
2011,05,19,07,56,8.20
2011,05,19,07,57,8.20
2011,05,19,07,58,8.30
2011,05,19,07,59,8.30
2011,05,19,08,00,8.40
2011,05,19,08,01,8.50
2011,05,19,08,02,8.60
2011,05,19,08,03,8.70
2011,05,19,08,04,8.80
2011,05,19,08,05,8.90
2011,05,19,08,06,9.00
2011,05,19,08,07,9.00
2011,05,19,08,08,9.00
2011,05,19,08,09,9.00
2011,05,19,08,10,9.00
2011,05,19,08,11,9.10
2011,05,19,08,12,9.10
2011,05,19,08,13,9.10
2011,05,19,08,14,9.10
2011,05,19,08,15,9.20
2011,05,19,08,16,9.20
2011,05,19,08,17,9.30
2011,05,19,08,18,9.30
2011,05,19,08,19,9.40
2011,05,19,08,20,9.40
2011,05,19,08,21,9.50
2011,05,19,08,22,9.60
2011,05,19,08,23,9.80
2011,05,19,08,24,9.90
2011,05,19,08,25,10.10
2011,05,19,08,26,10.20
2011,05,19,08,27,10.30
2011,05,19,08,28,10.50
2011,05,19,08,29,10.50
2011,05,19,08,30,10.60
2011,05,19,08,31,10.70
2011,05,19,08,32,10.70
2011,05,19,08,33,10.80
2011,05,19,08,34,10.80
2011,05,19,08,35,10.80
2011,05,19,08,36,10.80
2011,05,19,08,37,10.90
2011,05,19,08,38,11.00
2011,05,19,08,39,11.10
2011,05,19,08,40,11.10
2011,05,19,08,41,11.20
2011,05,19,08,42,11.30
2011,05,19,08,43,11.30
2011,05,19,08,44,11.40
2011,05,19,08,45,11.40
2011,05,19,08,46,11.40
2011,05,19,08,47,11.50
2011,05,19,08,48,11.50
2011,05,19,08,49,11.50
2011,05,19,08,50,11.60
2011,05,19,08,51,11.70
2011,05,19,08,52,11.70
2011,05,19,08,53,11.80
2011,05,19,08,54,11.90
2011,05,19,08,55,12.00
2011,05,19,08,56,12.00
2011,05,19,08,57,12.10
2011,05,19,08,58,12.10
2011,05,19,08,59,12.10
2011,05,19,09,00,12.10
2011,05,19,09,01,12.10
2011,05,19,09,02,12.20
2011,05,19,09,03,12.30
2011,05,19,09,04,12.40
2011,05,19,09,05,12.40
2011,05,19,09,06,12.50
2011,05,19,09,07,12.60
2011,05,19,09,08,12.70
2011,05,19,09,09,12.70
2011,05,19,09,10,12.80
2011,05,19,09,11,12.90
2011,05,19,09,12,12.90
2011,05,19,09,13,12.90
2011,05,19,09,14,12.90
2011,05,19,09,15,12.80
2011,05,19,09,16,12.70
2011,05,19,09,17,12.60
2011,05,19,09,18,12.50
2011,05,19,09,19,12.50
2011,05,19,09,20,12.40
2011,05,19,09,21,12.40
2011,05,19,09,22,12.40
2011,05,19,09,23,12.40
2011,05,19,09,24,12.40
2011,05,19,09,25,12.50
2011,05,19,09,26,12.60
2011,05,19,09,27,12.60
2011,05,19,09,28,12.70
2011,05,19,09,29,12.70
2011,05,19,09,30,12.70
2011,05,19,09,31,12.80
2011,05,19,09,32,12.80
2011,05,19,09,33,12.90
2011,05,19,09,34,13.00
2011,05,19,09,35,13.10
2011,05,19,09,36,13.20
2011,05,19,09,37,13.30
2011,05,19,09,38,13.40
2011,05,19,09,39,13.50
2011,05,19,09,40,13.50
2011,05,19,09,41,13.50
2011,05,19,09,42,13.50
2011,05,19,09,43,13.50
2011,05,19,09,44,13.50
2011,05,19,09,45,13.60
2011,05,19,09,46,13.50
2011,05,19,09,47,13.50
2011,05,19,09,48,13.50
2011,05,19,09,49,13.40
2011,05,19,09,50,13.40
2011,05,19,09,51,13.30
2011,05,19,09,52,13.30
2011,05,19,09,53,13.20
2011,05,19,09,54,13.10
2011,05,19,09,55,13.00
2011,05,19,09,56,12.90
2011,05,19,09,57,12.90
2011,05,19,09,58,12.90
2011,05,19,09,59,12.90
2011,05,19,10,00,12.90
2011,05,19,10,01,13.00
2011,05,19,10,02,13.10
2011,05,19,10,03,13.10
2011,05,19,10,04,13.20
2011,05,19,10,05,13.10
2011,05,19,10,06,13.10
2011,05,19,10,07,13.10
2011,05,19,10,08,13.00
2011,05,19,10,09,12.90
2011,05,19,10,10,12.80
2011,05,19,10,11,12.80
2011,05,19,10,12,12.70
2011,05,19,10,13,12.50
2011,05,19,10,14,12.40
2011,05,19,10,15,12.30
2011,05,19,10,16,12.20
2011,05,19,10,17,12.20
2011,05,19,10,18,12.30
2011,05,19,10,19,12.30
2011,05,19,10,20,12.30
2011,05,19,10,21,12.30
2011,05,19,10,22,12.30
2011,05,19,10,23,12.30
2011,05,19,10,24,12.30
2011,05,19,10,25,12.30
2011,05,19,10,26,12.30
2011,05,19,10,27,12.30
2011,05,19,10,28,12.30
2011,05,19,10,29,12.30
2011,05,19,10,30,12.20
2011,05,19,10,31,12.20
2011,05,19,10,32,12.20
2011,05,19,10,33,12.20
2011,05,19,10,34,12.10
2011,05,19,10,35,12.00
2011,05,19,10,36,11.80
2011,05,19,10,37,11.80
2011,05,19,10,38,11.70
2011,05,19,10,39,11.70
2011,05,19,10,40,11.60
2011,05,19,10,41,11.60
2011,05,19,10,42,11.50
2011,05,19,10,43,11.40
2011,05,19,10,44,11.30
2011,05,19,10,45,11.30
2011,05,19,10,46,11.30
2011,05,19,10,47,11.20
2011,05,19,10,48,11.20
2011,05,19,10,49,11.10
2011,05,19,10,50,11.10
2011,05,19,10,51,11.00
2011,05,19,10,52,11.00
2011,05,19,10,53,11.00
2011,05,19,10,54,11.00
2011,05,19,10,55,11.10
2011,05,19,10,56,11.10
2011,05,19,10,57,11.20
2011,05,19,10,58,11.20
2011,05,19,10,59,11.20
2011,05,19,11,00,11.20
2011,05,19,11,01,11.20
2011,05,19,11,02,11.20
2011,05,19,11,03,11.20
2011,05,19,11,04,11.20
2011,05,19,11,05,11.10
2011,05,19,11,06,11.10
2011,05,19,11,07,11.10
2011,05,19,11,08,11.00
2011,05,19,11,09,11.00
2011,05,19,11,10,11.00
2011,05,19,11,11,11.00
2011,05,19,11,12,11.00
2011,05,19,11,13,11.00
2011,05,19,11,14,11.00
2011,05,19,11,15,11.00
2011,05,19,11,16,10.90
2011,05,19,11,17,10.90
2011,05,19,11,18,11.00
2011,05,19,11,19,10.90
2011,05,19,11,20,11.00
2011,05,19,11,21,11.00
2011,05,19,11,22,11.00
2011,05,19,11,23,11.00
2011,05,19,11,24,11.00
2011,05,19,11,25,11.00
2011,05,19,11,26,11.00
2011,05,19,11,27,11.00
2011,05,19,11,28,11.00
2011,05,19,11,29,11.00
2011,05,19,11,30,11.00
2011,05,19,11,31,11.10
2011,05,19,11,32,11.10
2011,05,19,11,33,11.10
2011,05,19,11,34,11.00
2011,05,19,11,35,11.00
2011,05,19,11,36,11.00
2011,05,19,11,37,11.00
2011,05,19,11,38,11.10
2011,05,19,11,39,11.10
2011,05,19,11,40,11.10
2011,05,19,11,41,11.10
2011,05,19,11,42,11.20
2011,05,19,11,43,11.20
2011,05,19,11,44,11.20
2011,05,19,11,45,11.20
2011,05,19,11,46,11.20
2011,05,19,11,47,11.30
2011,05,19,11,48,11.30
2011,05,19,11,49,11.40
2011,05,19,11,50,11.40
2011,05,19,11,51,11.40
2011,05,19,11,52,11.40
2011,05,19,11,53,11.40
2011,05,19,11,54,11.40
2011,05,19,11,55,11.40
2011,05,19,11,56,11.30
2011,05,19,11,57,11.30
2011,05,19,11,58,11.40
2011,05,19,11,59,11.30
2011,05,19,12,00,11.30
2011,05,19,12,01,11.30
2011,05,19,12,02,11.30
2011,05,19,12,03,11.30
2011,05,19,12,04,11.40
2011,05,19,12,05,11.40
2011,05,19,12,06,11.40
2011,05,19,12,07,11.50
2011,05,19,12,08,11.50
2011,05,19,12,09,11.60
2011,05,19,12,10,11.60
2011,05,19,12,11,11.60
2011,05,19,12,12,11.60
2011,05,19,12,13,11.70
2011,05,19,12,14,11.70
2011,05,19,12,15,11.70
2011,05,19,12,16,11.80
2011,05,19,12,17,11.80
2011,05,19,12,18,11.70
2011,05,19,12,19,11.70
2011,05,19,12,20,11.70
2011,05,19,12,21,11.70
2011,05,19,12,22,11.70
2011,05,19,12,23,11.80
2011,05,19,12,24,11.80
2011,05,19,12,25,11.80
2011,05,19,12,26,11.80
2011,05,19,12,27,11.80
2011,05,19,12,28,11.80
2011,05,19,12,29,11.80
2011,05,19,12,30,11.80
2011,05,19,12,31,11.90
2011,05,19,12,32,11.90
2011,05,19,12,33,12.00
2011,05,19,12,34,12.10
2011,05,19,12,35,12.10
2011,05,19,12,36,12.30
2011,05,19,12,37,12.40
2011,05,19,12,38,12.50
2011,05,19,12,39,12.50
2011,05,19,12,40,12.60
2011,05,19,12,41,12.70
2011,05,19,12,42,12.80
2011,05,19,12,43,12.90
2011,05,19,12,44,12.90
2011,05,19,12,45,12.90
2011,05,19,12,46,12.80
2011,05,19,12,47,12.80
2011,05,19,12,48,12.80
2011,05,19,12,49,12.80
2011,05,19,12,50,12.80
2011,05,19,12,51,12.80
2011,05,19,12,52,12.70
2011,05,19,12,53,12.60
2011,05,19,12,54,12.40
2011,05,19,12,55,12.40
2011,05,19,12,56,12.30
2011,05,19,12,57,12.30
2011,05,19,12,58,12.40
2011,05,19,12,59,12.30
2011,05,19,13,00,12.30
2011,05,19,13,01,12.20
2011,05,19,13,02,12.20
2011,05,19,13,03,12.20
2011,05,19,13,04,12.20
2011,05,19,13,05,12.20
2011,05,19,13,06,12.30
2011,05,19,13,07,12.30
2011,05,19,13,08,12.30
2011,05,19,13,09,12.40
2011,05,19,13,10,12.50
2011,05,19,13,11,12.50
2011,05,19,13,12,12.50
2011,05,19,13,13,12.40
2011,05,19,13,14,12.40
2011,05,19,13,15,12.40
2011,05,19,13,16,12.40
2011,05,19,13,17,12.50
2011,05,19,13,18,12.50
2011,05,19,13,19,12.50
2011,05,19,13,20,12.50
2011,05,19,13,21,12.50
2011,05,19,13,22,12.60
2011,05,19,13,23,12.70
2011,05,19,13,24,12.90
2011,05,19,13,25,13.00
2011,05,19,13,26,13.10
2011,05,19,13,27,13.00
2011,05,19,13,28,12.90
2011,05,19,13,29,12.90
2011,05,19,13,30,12.90
2011,05,19,13,31,13.00
2011,05,19,13,32,13.10
2011,05,19,13,33,13.10
2011,05,19,13,34,13.20
2011,05,19,13,35,13.20
2011,05,19,13,36,13.30
2011,05,19,13,37,13.30
2011,05,19,13,38,13.40
2011,05,19,13,39,13.30
2011,05,19,13,40,13.30
2011,05,19,13,41,13.30
2011,05,19,13,42,13.20
2011,05,19,13,43,13.20
2011,05,19,13,44,13.30
2011,05,19,13,45,13.30
2011,05,19,13,46,13.50
2011,05,19,13,47,13.50
2011,05,19,13,48,13.60
2011,05,19,13,49,13.50
2011,05,19,13,50,13.50
2011,05,19,13,51,13.50
2011,05,19,13,52,13.60
2011,05,19,13,53,13.50
2011,05,19,13,54,13.40
2011,05,19,13,55,13.30
2011,05,19,13,56,13.30
2011,05,19,13,57,13.20
2011,05,19,13,58,13.20
2011,05,19,13,59,13.20
2011,05,19,14,00,13.20
2011,05,19,14,01,13.10
2011,05,19,14,02,13.00
2011,05,19,14,03,13.00
2011,05,19,14,04,13.10
2011,05,19,14,05,13.10
2011,05,19,14,06,13.20
2011,05,19,14,07,13.20
2011,05,19,14,08,13.20
2011,05,19,14,09,13.30
2011,05,19,14,10,13.30
2011,05,19,14,11,13.30
2011,05,19,14,12,13.30
2011,05,19,14,13,13.20
2011,05,19,14,14,13.20
2011,05,19,14,15,13.20
2011,05,19,14,16,13.30
2011,05,19,14,17,13.20
2011,05,19,14,18,13.20
2011,05,19,14,19,13.10
2011,05,19,14,20,13.10
2011,05,19,14,21,13.10
2011,05,19,14,22,13.00
2011,05,19,14,23,12.90
2011,05,19,14,24,12.80
2011,05,19,14,25,12.80
2011,05,19,14,26,12.80
2011,05,19,14,27,12.70
2011,05,19,14,28,12.80
2011,05,19,14,29,12.90
2011,05,19,14,30,13.10
2011,05,19,14,31,13.20
2011,05,19,14,32,13.30
2011,05,19,14,33,13.30
2011,05,19,14,34,13.30
2011,05,19,14,35,13.30
2011,05,19,14,36,13.30
2011,05,19,14,37,13.30
2011,05,19,14,38,13.30
2011,05,19,14,39,13.40
2011,05,19,14,40,13.50
2011,05,19,14,41,13.50
2011,05,19,14,42,13.50
2011,05,19,14,43,13.50
2011,05,19,14,44,13.50
2011,05,19,14,45,13.50
2011,05,19,14,46,13.50
2011,05,19,14,47,13.50
2011,05,19,14,48,13.50
2011,05,19,14,49,13.40
2011,05,19,14,50,13.40
2011,05,19,14,51,13.50
2011,05,19,14,52,13.60
2011,05,19,14,53,13.70
2011,05,19,14,54,13.60
2011,05,19,14,55,13.50
2011,05,19,14,56,13.60
2011,05,19,14,57,13.60
2011,05,19,14,58,13.50
2011,05,19,14,59,13.50
2011,05,19,15,00,13.50
2011,05,19,15,01,13.60
2011,05,19,15,02,13.70
2011,05,19,15,03,13.90
2011,05,19,15,04,14.00
2011,05,19,15,05,14.10
2011,05,19,15,06,14.20
2011,05,19,15,07,14.10
2011,05,19,15,08,14.20
2011,05,19,15,09,14.30
2011,05,19,15,10,14.30
2011,05,19,15,11,14.30
2011,05,19,15,12,14.00
2011,05,19,15,13,13.80
2011,05,19,15,14,13.70
2011,05,19,15,15,13.60
2011,05,19,15,16,13.40
2011,05,19,15,17,13.30
2011,05,19,15,18,13.30
2011,05,19,15,19,13.30
2011,05,19,15,20,13.50
2011,05,19,15,21,13.60
2011,05,19,15,22,13.50
2011,05,19,15,23,13.50
2011,05,19,15,24,13.50
2011,05,19,15,25,13.40
2011,05,19,15,26,13.40
2011,05,19,15,27,13.40
2011,05,19,15,28,13.50
2011,05,19,15,29,13.60
2011,05,19,15,30,13.70
2011,05,19,15,31,13.80
2011,05,19,15,32,13.80
2011,05,19,15,33,13.90
2011,05,19,15,34,14.00
2011,05,19,15,35,13.90
2011,05,19,15,36,13.90
2011,05,19,15,37,13.90
2011,05,19,15,38,13.90
2011,05,19,15,39,13.90
2011,05,19,15,40,14.00
2011,05,19,15,41,14.00
2011,05,19,15,42,13.90
2011,05,19,15,43,13.70
2011,05,19,15,44,13.60
2011,05,19,15,45,13.40
2011,05,19,15,46,13.40
2011,05,19,15,47,13.30
2011,05,19,15,48,13.30
2011,05,19,15,49,13.20
2011,05,19,15,50,13.10
2011,05,19,15,51,13.00
2011,05,19,15,52,12.90
2011,05,19,15,53,12.90
2011,05,19,15,54,12.90
2011,05,19,15,55,12.90
2011,05,19,15,56,12.90
2011,05,19,15,57,13.00
2011,05,19,15,58,13.00
2011,05,19,15,59,13.10
2011,05,19,16,00,13.10
2011,05,19,16,01,13.20
2011,05,19,16,02,13.20
2011,05,19,16,03,13.20
2011,05,19,16,04,13.20
2011,05,19,16,05,13.20
2011,05,19,16,06,13.10
2011,05,19,16,07,13.10
2011,05,19,16,08,13.10
2011,05,19,16,09,13.10
2011,05,19,16,10,13.10
2011,05,19,16,11,13.10
2011,05,19,16,12,13.10
2011,05,19,16,13,13.20
2011,05,19,16,14,13.20
2011,05,19,16,15,13.20
2011,05,19,16,16,13.30
2011,05,19,16,17,13.30
2011,05,19,16,18,13.40
2011,05,19,16,19,13.40
2011,05,19,16,20,13.40
2011,05,19,16,21,13.40
2011,05,19,16,22,13.30
2011,05,19,16,23,13.20
2011,05,19,16,24,13.20
2011,05,19,16,25,13.20
2011,05,19,16,26,13.20
2011,05,19,16,27,13.20
2011,05,19,16,28,13.30
2011,05,19,16,29,13.30
2011,05,19,16,30,13.30
2011,05,19,16,31,13.30
2011,05,19,16,32,13.30
2011,05,19,16,33,13.30
2011,05,19,16,34,13.30
2011,05,19,16,35,13.20
2011,05,19,16,36,13.20
2011,05,19,16,37,13.20
2011,05,19,16,38,13.20
2011,05,19,16,39,13.20
2011,05,19,16,40,13.10
2011,05,19,16,41,13.00
2011,05,19,16,42,13.00
2011,05,19,16,43,13.00
2011,05,19,16,44,12.90
2011,05,19,16,45,12.80
2011,05,19,16,46,12.70
2011,05,19,16,47,12.70
2011,05,19,16,48,12.60
2011,05,19,16,49,12.60
2011,05,19,16,50,12.60
2011,05,19,16,51,12.70
2011,05,19,16,52,12.70
2011,05,19,16,53,12.80
2011,05,19,16,54,12.80
2011,05,19,16,55,12.70
2011,05,19,16,56,12.70
2011,05,19,16,57,12.70
2011,05,19,16,58,12.60
2011,05,19,16,59,12.70
2011,05,19,17,00,12.70
2011,05,19,17,01,12.70
2011,05,19,17,02,12.70
2011,05,19,17,03,12.70
2011,05,19,17,04,12.70
2011,05,19,17,05,12.70
2011,05,19,17,06,12.70
2011,05,19,17,07,12.70
2011,05,19,17,08,12.70
2011,05,19,17,09,12.70
2011,05,19,17,10,12.70
2011,05,19,17,11,12.60
2011,05,19,17,12,12.60
2011,05,19,17,13,12.50
2011,05,19,17,14,12.50
2011,05,19,17,15,12.50
2011,05,19,17,16,12.60
2011,05,19,17,17,12.70
2011,05,19,17,18,12.70
2011,05,19,17,19,12.70
2011,05,19,17,20,12.70
2011,05,19,17,21,12.70
2011,05,19,17,22,12.70
2011,05,19,17,23,12.70
2011,05,19,17,24,12.70
2011,05,19,17,25,12.80
2011,05,19,17,26,12.80
2011,05,19,17,27,12.90
2011,05,19,17,28,13.00
2011,05,19,17,29,13.10
2011,05,19,17,30,13.10
2011,05,19,17,31,13.20
2011,05,19,17,32,13.20
2011,05,19,17,33,13.30
2011,05,19,17,34,13.30
2011,05,19,17,35,13.30
2011,05,19,17,36,13.40
2011,05,19,17,37,13.40
2011,05,19,17,38,13.30
2011,05,19,17,39,13.30
2011,05,19,17,40,13.40
2011,05,19,17,41,13.40